Location: Aciu?a
(46.2833°N, 22.4500°E)
Time: 00:26:01
(UTC+00:00)

COSMOS 1579 COOLANT - Visible Passes

Search period start: 11 August 2022 00:00
Search period end: 21 August 2022 00:00
Orbit: 901 x 954 km, 65.1° (Epoch: 06 August)

Date Brightness Start Highest point End Pass type
(mag) Time Alt. Az. Time Alt. Az. Time Alt. Az.
11 Aug ? 01:24:10 26° SSW 01:27:48 73° ESE 01:33:55 10° NE visible
11 Aug ? 23:51:18 19° SE 23:52:36 21° ESE 23:56:58 10° ENE visible
12 Aug ? 01:34:55 26° SW 01:38:38 80° NW 01:44:47 10° NE visible
13 Aug ? 00:02:00 29° SE 00:03:09 31° ESE 00:08:25 10° NE visible
13 Aug ? 01:45:37 22° WSW 01:49:33 57° NW 01:55:35 10° NNE visible
14 Aug ? 00:12:40 41° SE 00:13:48 45° ESE 00:19:35 10° NE visible
14 Aug ? 01:56:17 18° WSW 02:00:34 42° NW 02:06:21 10° NNE visible
14 Aug ? 22:39:41 11° E 22:39:41 11° E 22:40:51 10° E visible
15 Aug ? 00:23:18 54° S 00:24:31 67° ESE 00:30:36 10° NE visible
15 Aug ? 02:06:54 13° W 02:11:41 32° NW 02:17:05 10° NNE visible
15 Aug ? 22:50:16 18° E 22:50:16 18° E 22:53:26 10° ENE visible
16 Aug ? 00:33:53 56° SW 00:35:20 87° WNW 00:41:29 10° NE visible
16 Aug ? 02:17:54 10° W 02:22:52 25° NNW 02:27:49 10° NNE visible
16 Aug ? 23:00:50 27° E 23:00:50 27° E 23:05:01 10° NE visible
17 Aug ? 00:44:26 44° WSW 00:46:14 62° NW 00:52:19 10° NNE visible
17 Aug ? 02:29:45 10° WNW 02:34:09 20° NNW 02:38:33 10° NNE visible
17 Aug ? 23:11:21 39° E 23:11:21 39° E 23:16:14 10° NE visible
18 Aug ? 00:54:58 32° W 00:57:13 45° NW 01:03:04 10° NNE visible
18 Aug ? 02:41:41 10° WNW 02:45:31 17° NNW 02:49:19 10° NNE visible
18 Aug ? 23:21:51 58° E 23:21:51 58° E 23:27:17 10° NE visible
19 Aug ? 01:05:27 23° W 01:08:18 34° NW 01:13:49 10° NNE visible
19 Aug ? 02:53:42 10° NW 02:56:57 14° NNW 03:00:12 10° NNE visible
19 Aug ? 21:48:42 13° ENE 21:48:42 13° ENE 21:49:52 10° ENE visible
19 Aug ? 23:32:19 82° ENE 23:32:19 82° ENE 23:38:12 10° NE visible
20 Aug ? 01:15:55 16° W 01:19:29 26° NNW 01:24:33 10° NNE visible
20 Aug ? 21:59:09 20° ENE 21:59:09 20° ENE 22:01:34 10° ENE visible
20 Aug ? 23:42:45 67° WNW 23:42:55 68° NW 23:49:02 10° NNE visible
